{"data":{"norad_id":63658,"intl_designator":"2025-083AA","name":"STARLINK-33822","alt_names":[],"object_type":"PAYLOAD","status":"ACTIVE","operator":null,"country":"US","launch_date":"2025-04-25","launch_site_code":"AFETR","launch_vehicle":null,"mission":null,"orbit_class":"UNKNOWN","rcs_meters":null,"size_class":null,"mass_kg":null,"dimensions":null,"purposes":["comms"],"wikipedia_slug":null,"has_3d_model":false,"image_url":null,"decayed_at":null,"tle_current":{"epoch":"2026-05-24T17:24:15.637536Z","epoch_age_seconds":102387,"freshness":"FRESH","line1":"1 63658U 25083AA  26144.72518099  .00012408  00000+0  45961-3 0  9996","line2":"2 63658  42.9977 295.9539 0001227 276.5665  83.5046 15.27583930 61724","mean_motion":15.2758393,"eccentricity":0.0001227,"inclination_deg":42.9977,"raan_deg":295.9539,"arg_perigee_deg":276.5665,"mean_anomaly_deg":83.5046,"bstar":0.00045961,"rev_number":6172,"period_min":94.266506194524,"perigee_km":482.195462141,"apogee_km":483.87919432115,"semimajor_km":6861.1743282311,"source":"CELESTRAK","updated_at":"2026-05-25T13:38:20.087959Z"}}}